Location: Unspecified
(0.0000°N, 0.0000°E)
Time: 17:22:19
(UTC+00:00)

COSMOS-2409 - Pass Details

Date: 12 June 2023
Orbit: 1474 x 1494 km, 82.5° (Epoch: 27 September)

Event Time Altitude Azimuth Distance (km) Brightness Sun altitude
Exits shadow 03:27:30 24° 321° (NW) 2,716 8.6 -34.5°
Drops below altitude 10° 03:30:56 10° 337° (NNW) 3,630 9.5 -33.8°
Sets 03:34:07 0° 346° (NNW) 4,607 10.2 -33.1°
